Weather Roundup
Issued by NWS Corpus Christi, TX

Home | Current Version | Previous Version | Text Only | Print | Product List | Glossary On
Versions: 1 2 3 4 5 6 7 8 9 10 11 12 13 14 15 16 17 18 19 20 21 22 23 24 25 26 27 28 29 30 31 32 33 34 35 36 37 38 39 40 41 42 43 44 45 46 47 48 49 50
000
ASUS44 KCRP 280510
HRRCRP

SOUTH TEXAS REGIONAL WEATHER ROUNDUP
NATIONAL WEATHER SERVICE CORPUS CHRISTI TX
1200 AM CDT SUN MAY 28 2017


TXZ229>244-280600-
...CORPUS CHRISTI AREA OBSERVATIONS...

CITY           SKY/WX    TMP DP  RH WIND       PRES   REMARKS
CORPUS CHRISTI CLOUDY    80  78  94 S14       29.86S
NAS CORPUS CHR CLOUDY    82  79  90 S18       29.86S HX  92
ROCKPORT       CLOUDY    81  76  84 S14G21    29.86F
KINGSVILLE NAS CLOUDY    81  79  94 S12       29.87R HX  90
ALICE          CLOUDY    80  76  87 CALM      29.88R
ORANGE GROVE   CLOUDY    80  78  94 S6        29.91R
FALFURRIAS     CLOUDY    80  77  89 SE9       29.87R
$$

...VICTORIA AREA OBSERVATIONS...

CITY           SKY/WX    TMP DP  RH WIND       PRES   REMARKS
VICTORIA       CLOUDY    80  76  87 S8        29.89R
BEEVILLE       CLOUDY   N/A N/A N/A S5        29.90R
PLEASANTON     CLOUDY    78  74  87 SE10      29.87F
SAN ANTONIO    CLOUDY    79  73  82 SE16G25   29.87F
$$

...LAREDO AREA OBSERVATIONS...

CITY           SKY/WX    TMP DP  RH WIND       PRES   REMARKS
LAREDO         CLOUDY    87  74  64 E9        29.88R HX  95
COTULLA        CLOUDY    84  74  71 SE16      29.84F HX  91
DEL RIO        PTCLDY    81  71  71 S8        29.78S
MCALLEN        MOCLDY    83  77  82 SE15      29.87R HX  92
HEBBRONVILLE   CLOUDY    79  74  84 CALM      29.91R
$$

...OTHER TEXAS OBSERVATIONS...

CITY           SKY/WX    TMP DP  RH WIND       PRES   REMARKS
BROWNSVILLE    CLOUDY    84  79  85 SE12      29.88R HX  96
HOUSTON        CLOUDY    81  75  82 S10       29.86F
COL. STATION   CLOUDY    78  74  87 S15G21    29.87R
AUSTIN         MOCLDY    79  74  84 S12       29.87S
WACO           PTCLDY    81  72  74 S20G29    29.79F
FORT WORTH     CLEAR     85  75  72 S20       29.74S HX  93
WICHITA FALLS  CLOUDY    83  66  56 N17G28    29.77R
LUBBOCK        PTCLDY    72  24  16 SE8       29.90R
EL PASO        CLEAR     81  12   7 NW3       30.00R
$$

...MARINE OBSERVATIONS...

STATION/POSITION TIME  SKY/WX   TEMP    WIND        PRES    VSBY  WAVE   SWELL
                                AIR SEA DIR/SP/G                  HT/PER HT/PER
                 (UTC)          (F)     (DEG/KT/KT) (MB)    (MI)  (FT/S) (FT/S)
PORT ARANSAS     0500            80 82  150/ 17/ 19 1011.2R
BUOY 90 E PORT A 0350            81 80  130/ 16/ 17 1012.1          4/ 7
BUOY 45 SE BAFFI 0450            81     150/ 16/ 19 1010.7S         5/ 7   2/12
BUOY 200 E PT IS 0350            81 81  140/ 12/ 16 1013.8          4/ 7   3/ 7
BUOY 15 E GALVES 0350            80 80  150/ 14/ 16 1012.4          3/ 6   2/ 6
$$




USA.gov is the U.S. government's official web portal to all federal, state and local government web resources and services.